カタログに戻る

ATLAS 2AS CENTAUR R/B

運用中HEO
NORAD 26072·ROCKET BODY·🇺🇸 United States

打ち上げ Feb 3, 2000 から Cape Canaveral Space Force Station

Loading…

次のパス (今後24時間)

TLE

最新Source: Space-Track

元期: Sep 14, 2026, 08:46 UTC

1 26072U 00007B   26257.36580632  .00031215  00000-0  83198-3 0  9993
2 26072  18.0739 325.0413 3033471  34.0568 342.1871  9.35227962364860

AllMySatでATLAS 2AS CENTAUR R/Bをリアルタイム追跡

Download on the App Store